KC1ELF Weather Reports


time (UTC)temp
C
wind
direction
speed
KPH
gust
KPH
rain 1hr
cm
rain 24hr
cm
rain mn
cm
humidity
%
barometer
mb
20260507191136 20 329 9.7 19.3 0.00 0.79 0.08 32 1005.2
20260507190135 20 19 11.3 19.3 0.00 0.79 0.08 34 1005.5
20260507185136 18 23 11.3 19.3 0.00 0.79 0.08 33 1005.5
20260507184137 19 26 9.7 17.7 0.00 0.79 0.08 33 1005.4
20260507183136 19 89 6.4 22.5 0.00 0.79 0.08 35 1005.7
20260507182137 20 42 8.0 22.5 0.00 0.79 0.08 35 1005.6
20260507181136 20 73 8.0 22.5 0.00 0.79 0.08 34 1005.7
20260507180135 20 350 6.4 22.5 0.00 0.79 0.08 34 1005.7
20260507175136 18 23 9.7 24.1 0.00 0.79 0.08 35 1005.5
20260507174136 19 86 8.0 24.1 0.00 0.79 0.08 37 1005.5
20260507173137 18 51 11.3 24.1 0.00 0.79 0.08 38 1005.4
20260507172136 17 264 9.7 24.1 0.00 0.79 0.08 41 1005.6
20260507171135 16 65 9.7 24.1 0.00 0.79 0.08 43 1005.7
20260507170135 16 30 11.3 24.1 0.00 0.79 0.08 44 1006.1
20260507165135 16 344 6.4 17.7 0.00 0.79 0.08 46 1006.1
20260507164137 16 344 9.7 17.7 0.00 0.79 0.08 47 1006.0
20260507163138 16 23 8.0 17.7 0.00 0.79 0.08 54 1006.3
20260507162135 15 31 8.0 17.7 0.00 0.79 0.08 55 1006.2
20260507161136 15 15 6.4 16.1 0.00 0.79 0.08 56 1006.3
20260507160136 15 148 8.0 16.1 0.00 0.79 0.08 59 1006.4
20260507155136 15 330 6.4 16.1 0.00 0.79 0.08 59 1006.4
20260507154136 15 61 8.0 16.1 0.00 0.79 0.08 61 1006.5
20260507153137 15 44 4.8 16.1 0.00 0.79 0.08 62 1006.7
20260507152136 14 36 6.4 16.1 0.00 0.79 0.08 61 1006.7
20260507151135 14 71 9.7 16.1 0.00 0.79 0.08 60 1006.8
20260507150135 15 314 8.0 16.1 0.00 0.79 0.08 58 1007.0
20260507145137 15 72 4.8 16.1 0.00 0.79 0.08 58 1007.0
20260507144138 16 284 4.8 16.1 0.00 0.79 0.08 61 1007.0
20260507143135 15 351 6.4 16.1 0.00 0.79 0.08 61 1007.0
20260507142137 15 53 4.8 16.1 0.00 0.79 0.08 60 1007.0
20260507141136 14 66 4.8 12.9 0.00 0.79 0.08 61 1006.9
20260507140135 13 358 8.0 12.9 0.00 0.79 0.08 62 1006.7
20260507135136 13 76 8.0 14.5 0.00 0.79 0.08 63 1006.7
20260507134135 13 348 4.8 14.5 0.00 0.79 0.08 68 1006.8
20260507133137 12 43 4.8 14.5 0.00 0.79 0.08 68 1007.0
20260507132137 12 55 6.4 14.5 0.00 0.79 0.08 69 1007.2
20260507131136 11 30 6.4 14.5 0.00 0.79 0.08 70 1007.4
20260507130137 11 69 8.0 14.5 0.00 0.79 0.08 73 1007.4
20260507125136 11 52 4.8 14.5 0.00 0.79 0.08 76 1007.5
20260507124135 10 36 4.8 11.3 0.00 0.79 0.08 78 1007.6
20260507123135 10 56 6.4 11.3 0.00 0.79 0.08 79 1007.4
20260507122136 10 61 3.2 9.7 0.00 0.79 0.08 80 1007.4
20260507121136 10 57 4.8 9.7 0.00 0.79 0.08 82 1007.6
20260507120136 10 62 4.8 9.7 0.00 0.79 0.08 83 1007.5
20260507115137 10 19 3.2 9.7 0.00 0.79 0.08 85 1007.4
20260507114136 9 1 1.6 9.7 0.00 0.79 0.08 85 1007.4
20260507113136 9 14 4.8 9.7 0.00 0.79 0.08 85 1007.2
20260507112139 9 58 3.2 11.3 0.00 0.79 0.08 85 1007.1
20260507111137 9 349 1.6 11.3 0.00 0.79 0.08 86 1007.2
20260507110136 8 48 3.2 11.3 0.00 0.79 0.08 86 1007.4
20260507105136 8 344 3.2 11.3 0.00 0.79 0.08 86 1007.1
20260507104136 8 68 4.8 11.3 0.00 0.79 0.08 87 1006.7
20260507103136 8 80 4.8 11.3 0.00 0.79 0.08 88 1006.7
20260507102136 8 47 3.2 8.0 0.00 0.79 0.08 89 1006.6
20260507101137 8 21 4.8 8.0 0.00 0.79 0.08 90 1006.7
20260507100136 8 32 3.2 8.0 0.00 0.79 0.08 90 1006.7
20260507095136 8 351 3.2 8.0 0.00 0.79 0.08 91 1007.1
20260507094135 8 97 3.2 4.8 0.00 0.79 0.08 91 1006.7
20260507093137 8 47 1.6 9.7 0.00 0.79 0.08 91 1006.8
20260507092136 8 353 1.6 9.7 0.00 0.79 0.08 91 1006.9
20260507091136 8 316 0.0 9.7 0.00 0.79 0.08 91 1007.2
20260507090135 8 322 1.6 9.7 0.00 0.79 0.08 90 1006.7
20260507085135 8 63 3.2 9.7 0.03 0.79 0.08 89 1006.6
20260507084135 8 43 1.6 9.7 0.03 0.79 0.08 89 1006.9
20260507083037 8 58 3.2 9.7 0.03 0.79 0.08 90 1006.7
20260507082136 9 22 3.2 9.7 0.03 0.79 0.08 90 1006.6
20260507081136 9 332 1.6 9.7 0.03 0.79 0.08 90 1006.5
20260507080136 10 43 1.6 9.7 0.03 0.79 0.08 89 1006.7
20260507075137 10 32 3.2 9.7 0.00 0.76 0.05 89 1006.7
20260507074136 10 40 3.2 8.0 0.00 0.76 0.05 89 1006.9
20260507073137 10 75 3.2 8.0 0.00 0.76 0.05 89 1006.2
20260507072137 10 38 3.2 8.0 0.00 0.76 0.05 90 1006.0
20260507071136 10 347 1.6 6.4 0.00 0.76 0.05 90 1006.3
20260507070136 10 12 1.6 8.0 0.00 0.76 0.05 90 1006.1
20260507065136 10 88 1.6 8.0 0.00 0.76 0.05 90 1006.1
20260507064136 10 338 1.6 14.5 0.00 0.76 0.05 90 1005.9
20260507063137 10 46 1.6 14.5 0.00 0.76 0.05 89 1005.9
20260507062135 10 38 1.6 14.5 0.00 0.76 0.05 89 1005.8
20260507061136 10 42 3.2 14.5 0.00 0.76 0.05 88 1005.9
20260507060136 10 53 4.8 14.5 0.00 0.76 0.05 88 1006.0
20260507055137 10 58 4.8 14.5 0.00 0.76 0.05 89 1006.3
20260507054136 10 44 4.8 11.3 0.00 0.76 0.05 90 1006.4
20260507053137 10 53 3.2 14.5 0.00 0.76 0.05 90 1006.2
20260507052136 11 44 4.8 14.5 0.00 0.76 0.05 90 1006.7
20260507051136 11 334 4.8 14.5 0.03 0.76 0.05 91 1006.4
20260507050136 11 62 4.8 14.5 0.03 0.76 0.05 92 1006.5
20260507045136 11 33 4.8 14.5 0.03 0.76 0.05 92 1006.3
20260507044136 12 60 4.8 14.5 0.03 0.76 0.05 92 1006.1
20260507043138 12 58 6.4 14.5 0.03 0.76 0.05 92 1006.1
20260507042136 13 40 3.2 14.5 0.03 0.76 0.05 92 1006.1
20260507041137 13 47 1.6 14.5 0.03 0.74 0.03 91 1006.4
20260507040136 13 64 4.8 12.9 0.03 0.74 0.03 92 1006.1
20260507035136 14 46 6.4 12.9 0.03 0.74 0.03 93 1005.7
20260507034137 14 25 3.2 12.9 0.03 0.74 0.03 93 1005.7
20260507033136 14 66 3.2 12.9 0.03 0.74 0.03 94 1005.5
20260507032136 15 39 6.4 12.9 0.03 0.74 0.03 94 1005.3
20260507031136 14 22 4.8 9.7 0.00 0.71 0.00 94 1005.3
20260507030136 14 9 3.2 9.7 0.00 0.71 0.00 94 1005.0
20260507025136 15 274 3.2 9.7 0.00 0.71 0.00 94 1005.1
20260507024135 14 251 3.2 8.0 0.00 0.71 0.00 94 1005.0
20260507023136 14 308 4.8 14.5 0.00 0.71 0.00 94 1005.1
20260507022137 14 222 3.2 14.5 0.00 0.71 0.00 93 1004.9
20260507021135 14 255 3.2 14.5 0.00 0.71 0.00 93 1005.0
20260507020135 14 287 3.2 16.1 0.00 0.71 0.00 93 1005.0
20260507015136 14 141 1.6 16.1 0.00 0.71 0.00 93 1005.2
20260507014136 14 279 6.4 17.7 0.00 0.71 0.00 93 1005.1
20260507013137 14 272 3.2 17.7 0.00 0.71 0.00 93 1005.2
20260507012137 14 269 1.6 17.7 0.00 0.71 0.00 93 1005.3
20260507011137 14 317 4.8 17.7 0.00 0.71 0.00 93 1005.4
20260507010136 15 3 3.2 17.7 0.00 0.71 0.00 93 1005.3
20260507005136 15 287 4.8 17.7 0.00 0.71 0.00 93 1005.4
20260507004137 15 264 4.8 11.3 0.03 0.71 0.00 93 1005.2
20260507003136 15 294 4.8 11.3 0.03 0.71 0.00 93 1005.1
20260507002136 15 264 4.8 11.3 0.05 0.71 0.00 93 1005.0
20260507001137 15 275 3.2 11.3 0.13 0.71 0.00 93 1005.1
20260507000136 15 265 3.2 11.3 0.15 0.71 0.00 93 1005.1
20260506235136 15 341 4.8 11.3 0.18 0.71 0.71 93 1005.0
20260506234136 15 277 4.8 11.3 0.20 0.69 0.69 93 1005.0
20260506233136 15 275 3.2 11.3 0.25 0.69 0.69 93 1005.0
20260506232140 15 239 4.8 11.3 0.30 0.66 0.66 92 1005.0
20260506231136 15 327 3.2 11.3 0.23 0.58 0.58 92 1005.2
20260506230136 15 311 4.8 11.3 0.23 0.56 0.56 92 1005.4
20260506225136 15 69 4.8 12.9 0.23 0.53 0.53 92 1005.3
20260506224136 15 203 8.0 12.9 0.18 0.48 0.48 92 1005.4
20260506223136 15 152 3.2 12.9 0.15 0.43 0.43 91 1005.4
20260506222136 15 258 3.2 12.9 0.08 0.36 0.36 91 1005.5
20260506221136 15 291 4.8 12.9 0.08 0.36 0.36 91 1005.6
20260506220136 15 128 6.4 14.5 0.08 0.33 0.33 91 1005.7
20260506215136 15 274 4.8 14.5 0.08 0.30 0.30 91 1005.6
20260506214135 15 161 4.8 17.7 0.10 0.30 0.30 90 1005.6
20260506213137 15 72 4.8 17.7 0.13 0.28 0.28 90 1005.8
20260506212136 15 306 3.2 17.7 0.15 0.28 0.28 90 1006.0
20260506211135 15 260 6.4 17.7 0.20 0.28 0.28 89 1006.3
20260506210137 16 303 6.4 17.7 0.18 0.25 0.25 88 1006.1
20260506205138 16 225 6.4 17.7 0.18 0.23 0.23 87 1006.2
20260506204137 16 270 4.8 12.9 0.15 0.20 0.20 86 1006.3
20260506203136 16 281 4.8 12.9 0.13 0.15 0.15 86 1006.3
20260506202137 16 323 4.8 12.9 0.10 0.13 0.13 84 1006.1
20260506201136 17 310 6.4 11.3 0.08 0.08 0.08 83 1006.1
20260506200136 17 187 4.8 16.1 0.08 0.08 0.08 83 1006.2
20260506195136 17 211 3.2 17.7 0.05 0.05 0.05 81 1006.2
20260506194136 17 20 1.6 17.7 0.05 0.05 0.05 79 1006.3
20260506193138 18 158 3.2 22.5 0.03 0.03 0.03 77 1006.3
20260506192136 18 289 6.4 22.5 0.03 0.03 0.03 75 1006.2